Time,TemperatureF,DewpointF,PressureIn,WindDirection,WindDirectionDegrees,WindSpeedMPH,WindSpeedGustMPH,Humidity,HourlyPrecipIn,Conditions,Clouds,dailyrainin,SoftwareType,DateUTC
2013-06-25 00:00:00,70.0,65.7,29.81,North,0,7.6,7.6,86,0.00,,,0.00,meteobridge,2013-06-25 05:00:00,
2013-06-25 00:06:00,69.8,65.5,29.81,NW,315,6.0,7.6,86,0.00,,,0.00,meteobridge,2013-06-25 05:06:00,
2013-06-25 00:12:00,69.8,65.5,29.81,NW,315,9.8,9.8,86,0.00,,,0.00,meteobridge,2013-06-25 05:12:00,
2013-06-25 00:17:00,69.8,65.1,29.80,NW,315,7.6,7.6,85,0.00,,,0.00,meteobridge,2013-06-25 05:17:00,
2013-06-25 00:23:00,69.8,65.1,29.81,North,0,6.9,9.2,85,0.00,,,0.00,meteobridge,2013-06-25 05:23:00,
2013-06-25 00:29:00,69.8,65.1,29.80,North,0,6.0,9.2,85,0.00,,,0.00,meteobridge,2013-06-25 05:29:00,
2013-06-25 00:34:00,69.6,65.3,29.80,North,0,8.3,8.3,86,0.00,,,0.00,meteobridge,2013-06-25 05:34:00,
2013-06-25 00:40:00,69.4,65.1,29.80,North,0,6.9,6.9,86,0.00,,,0.00,meteobridge,2013-06-25 05:40:00,
2013-06-25 00:46:00,69.3,64.9,29.80,NW,315,5.4,5.4,86,0.00,,,0.00,meteobridge,2013-06-25 05:46:00,
2013-06-25 00:51:00,69.1,65.1,29.81,North,0,5.4,6.0,87,0.00,,,0.00,meteobridge,2013-06-25 05:51:00,
2013-06-25 00:57:00,68.9,64.9,29.81,NW,315,5.4,5.4,87,0.00,,,0.00,meteobridge,2013-06-25 05:57:00,
2013-06-25 01:02:00,68.9,64.9,29.80,NW,315,5.4,5.4,87,0.00,,,0.00,meteobridge,2013-06-25 06:02:00,
2013-06-25 01:08:00,68.9,64.9,29.80,NNW,338,6.9,7.6,87,0.00,,,0.00,meteobridge,2013-06-25 06:08:00,
2013-06-25 01:14:00,68.9,64.9,29.80,NW,315,5.4,6.0,87,0.00,,,0.00,meteobridge,2013-06-25 06:14:00,
2013-06-25 01:19:00,68.9,64.9,29.80,NW,315,9.2,9.2,87,0.00,,,0.00,meteobridge,2013-06-25 06:19:00,
2013-06-25 01:25:00,68.9,64.6,29.80,NW,315,9.2,9.2,86,0.00,,,0.00,meteobridge,2013-06-25 06:25:00,
2013-06-25 01:31:00,68.9,64.6,29.79,NW,315,7.6,7.6,86,0.00,,,0.00,meteobridge,2013-06-25 06:31:00,
2013-06-25 01:36:00,68.9,64.6,29.80,NW,315,9.2,9.2,86,0.00,,,0.00,meteobridge,2013-06-25 06:36:00,
2013-06-25 01:42:00,68.7,64.4,29.80,North,0,10.7,10.7,86,0.00,,,0.00,meteobridge,2013-06-25 06:42:00,
2013-06-25 01:48:00,68.7,64.4,29.80,North,0,9.2,9.2,86,0.00,,,0.00,meteobridge,2013-06-25 06:48:00,
2013-06-25 01:53:00,68.4,64.0,29.80,North,0,7.6,9.2,86,0.00,,,0.00,meteobridge,2013-06-25 06:53:00,
2013-06-25 01:59:00,68.4,64.0,29.79,North,0,6.9,8.3,86,0.00,,,0.00,meteobridge,2013-06-25 06:59:00,
2013-06-25 02:04:00,68.2,63.9,29.79,NNE,23,7.6,7.6,86,0.00,,,0.00,meteobridge,2013-06-25 07:04:00,
2013-06-25 02:10:00,68.2,63.9,29.80,North,0,6.0,6.9,86,0.00,,,0.00,meteobridge,2013-06-25 07:10:00,
2013-06-25 02:16:00,68.0,63.3,29.80,NNE,23,7.6,7.6,85,0.00,,,0.00,meteobridge,2013-06-25 07:16:00,
2013-06-25 02:21:00,68.2,63.5,29.79,North,0,6.0,6.9,85,0.00,,,0.00,meteobridge,2013-06-25 07:21:00,
2013-06-25 02:27:00,68.2,63.5,29.79,North,0,3.8,5.4,85,0.00,,,0.00,meteobridge,2013-06-25 07:27:00,
2013-06-25 02:33:00,68.0,63.3,29.79,NE,45,4.5,5.4,85,0.00,,,0.00,meteobridge,2013-06-25 07:33:00,
2013-06-25 02:38:00,67.8,63.5,29.79,North,0,5.4,5.4,86,0.00,,,0.00,meteobridge,2013-06-25 07:38:00,
2013-06-25 02:44:00,67.6,63.3,29.79,North,0,6.0,6.0,86,0.00,,,0.00,meteobridge,2013-06-25 07:44:00,
2013-06-25 02:50:00,67.6,63.7,29.79,North,0,6.9,6.9,87,0.00,,,0.00,meteobridge,2013-06-25 07:50:00,
2013-06-25 02:55:00,67.5,63.5,29.79,North,0,7.6,9.8,87,0.00,,,0.00,meteobridge,2013-06-25 07:55:00,
2013-06-25 03:00:00,67.5,63.5,29.79,North,0,7.6,7.6,87,0.00,,,0.00,meteobridge,2013-06-25 08:00:00,
2013-06-25 03:06:00,67.3,63.3,29.79,North,0,9.2,9.2,87,0.00,,,0.00,meteobridge,2013-06-25 08:06:00,
2013-06-25 03:12:00,67.3,63.3,29.79,North,0,6.0,7.6,87,0.00,,,0.00,meteobridge,2013-06-25 08:12:00,
2013-06-25 03:17:00,67.1,63.1,29.79,NW,315,4.5,5.4,87,0.00,,,0.00,meteobridge,2013-06-25 08:17:00,
2013-06-25 03:23:00,67.1,63.1,29.79,NW,315,4.5,4.5,87,0.00,,,0.00,meteobridge,2013-06-25 08:23:00,
2013-06-25 03:29:00,66.7,63.1,29.79,NW,315,3.8,3.8,88,0.00,,,0.00,meteobridge,2013-06-25 08:29:00,
2013-06-25 03:34:00,66.7,63.1,29.80,North,0,3.1,3.1,88,0.00,,,0.00,meteobridge,2013-06-25 08:34:00,
2013-06-25 03:39:00,66.6,63.0,29.80,North,0,3.1,3.1,88,0.00,,,0.00,meteobridge,2013-06-25 08:39:00,
2013-06-25 03:45:00,66.4,63.0,29.80,NW,315,4.5,4.5,89,0.00,,,0.00,meteobridge,2013-06-25 08:45:00,
2013-06-25 03:51:00,66.4,63.0,29.80,NNW,338,4.5,5.4,89,0.00,,,0.00,meteobridge,2013-06-25 08:51:00,
2013-06-25 03:56:00,66.4,63.3,29.80,NW,315,4.5,6.0,90,0.00,,,0.00,meteobridge,2013-06-25 08:56:00,
2013-06-25 04:02:00,66.4,63.3,29.79,NW,315,3.1,4.5,90,0.00,,,0.00,meteobridge,2013-06-25 09:02:00,
2013-06-25 04:08:00,66.2,62.8,29.79,SW,225,3.1,3.1,89,0.00,,,0.00,meteobridge,2013-06-25 09:08:00,
2013-06-25 04:13:00,66.0,63.3,29.79,SW,225,3.8,3.8,91,0.00,,,0.00,meteobridge,2013-06-25 09:13:00,
2013-06-25 04:19:00,65.7,63.0,29.79,SW,225,3.8,3.8,91,0.00,,,0.00,meteobridge,2013-06-25 09:19:00,
2013-06-25 04:24:00,65.3,63.0,29.79,SW,225,3.8,3.8,92,0.00,,,0.00,meteobridge,2013-06-25 09:24:00,
2013-06-25 04:30:00,65.1,62.8,29.80,West,270,1.6,3.1,92,0.00,,,0.00,meteobridge,2013-06-25 09:30:00,
2013-06-25 04:36:00,65.1,63.0,29.80,West,270,1.6,1.6,93,0.00,,,0.00,meteobridge,2013-06-25 09:36:00,
2013-06-25 04:41:00,64.9,62.8,29.80,SW,225,1.6,1.6,93,0.00,,,0.00,meteobridge,2013-06-25 09:41:00,
2013-06-25 04:47:00,64.8,62.6,29.79,SW,225,2.2,2.2,93,0.00,,,0.00,meteobridge,2013-06-25 09:47:00,
2013-06-25 04:53:00,64.8,63.0,29.79,SW,225,1.6,2.2,94,0.00,,,0.00,meteobridge,2013-06-25 09:53:00,
2013-06-25 04:58:00,64.8,63.0,29.79,NW,315,2.2,2.2,94,0.00,,,0.00,meteobridge,2013-06-25 09:58:00,
2013-06-25 05:04:00,64.8,63.0,29.79,West,270,2.2,2.2,94,0.00,,,0.00,meteobridge,2013-06-25 10:04:00,
2013-06-25 05:10:00,64.6,62.8,29.79,SW,225,1.6,2.2,94,0.00,,,0.00,meteobridge,2013-06-25 10:10:00,
2013-06-25 05:15:00,64.6,62.8,29.79,NW,315,1.6,1.6,94,0.00,,,0.00,meteobridge,2013-06-25 10:15:00,
2013-06-25 05:21:00,64.6,62.8,29.79,West,270,2.2,2.2,94,0.00,,,0.00,meteobridge,2013-06-25 10:21:00,
2013-06-25 05:27:00,64.4,62.6,29.79,West,270,3.1,3.1,94,0.00,,,0.00,meteobridge,2013-06-25 10:27:00,
2013-06-25 05:32:00,64.4,62.6,29.79,NW,315,3.1,3.1,94,0.00,,,0.00,meteobridge,2013-06-25 10:32:00,
2013-06-25 05:38:00,64.4,63.0,29.79,West,270,2.2,3.1,95,0.00,,,0.00,meteobridge,2013-06-25 10:38:00,
2013-06-25 05:43:00,64.6,63.1,29.78,West,270,3.1,3.8,95,0.00,,,0.00,meteobridge,2013-06-25 10:43:00,
2013-06-25 05:49:00,64.8,63.3,29.78,WSW,248,3.8,3.8,95,0.00,,,0.00,meteobridge,2013-06-25 10:49:00,
2013-06-25 05:55:00,64.6,62.8,29.78,West,270,4.5,4.5,94,0.00,,,0.00,meteobridge,2013-06-25 10:55:00,
2013-06-25 06:00:00,64.6,62.8,29.77,West,270,3.8,4.5,94,0.00,,,0.00,meteobridge,2013-06-25 11:00:00,
2013-06-25 06:06:00,64.9,63.1,29.78,West,270,4.5,4.5,94,0.00,,,0.00,meteobridge,2013-06-25 11:06:00,
2013-06-25 06:12:00,65.1,63.3,29.78,West,270,6.0,6.0,94,0.00,,,0.00,meteobridge,2013-06-25 11:12:00,
2013-06-25 06:17:00,65.3,63.5,29.78,WNW,293,4.5,5.4,94,0.00,,,0.00,meteobridge,2013-06-25 11:17:00,
2013-06-25 06:23:00,65.7,63.5,29.77,West,270,4.5,6.0,93,0.00,,,0.00,meteobridge,2013-06-25 11:23:00,
2013-06-25 06:29:00,65.8,63.5,29.77,West,270,4.5,6.0,92,0.00,,,0.00,meteobridge,2013-06-25 11:29:00,
2013-06-25 06:34:00,66.0,63.7,29.77,SW,225,3.8,3.8,92,0.00,,,0.00,meteobridge,2013-06-25 11:34:00,
2013-06-25 06:40:00,66.2,63.1,29.78,NW,315,5.4,6.9,90,0.00,,,0.00,meteobridge,2013-06-25 11:40:00,
2013-06-25 06:45:00,66.6,63.1,29.77,NW,315,6.0,6.0,89,0.00,,,0.00,meteobridge,2013-06-25 11:45:00,
2013-06-25 06:51:00,66.7,63.3,29.77,West,270,4.5,4.5,89,0.00,,,0.00,meteobridge,2013-06-25 11:51:00,
2013-06-25 06:57:00,66.7,63.3,29.78,NW,315,4.5,5.4,89,0.00,,,0.00,meteobridge,2013-06-25 11:57:00,
2013-06-25 07:02:00,67.1,63.5,29.78,North,0,5.4,6.0,88,0.00,,,0.00,meteobridge,2013-06-25 12:02:00,
2013-06-25 07:08:00,66.9,63.3,29.78,NW,315,6.0,6.9,88,0.00,,,0.00,meteobridge,2013-06-25 12:08:00,
2013-06-25 07:14:00,67.3,63.7,29.79,NW,315,5.4,7.6,88,0.00,,,0.00,meteobridge,2013-06-25 12:14:00,
2013-06-25 07:19:00,68.0,64.0,29.79,North,0,4.5,4.5,87,0.00,,,0.00,meteobridge,2013-06-25 12:19:00,
2013-06-25 07:25:00,68.5,64.2,29.79,North,0,4.5,5.4,86,0.00,,,0.00,meteobridge,2013-06-25 12:25:00,
2013-06-25 07:31:00,69.4,64.4,29.79,NNW,338,6.0,6.0,84,0.00,,,0.00,meteobridge,2013-06-25 12:31:00,
2013-06-25 07:36:00,70.0,64.2,29.78,NW,315,5.4,6.0,82,0.00,,,0.00,meteobridge,2013-06-25 12:36:00,
2013-06-25 07:42:00,69.8,63.7,29.79,WNW,293,6.9,9.2,81,0.00,,,0.00,meteobridge,2013-06-25 12:42:00,
2013-06-25 07:47:00,70.3,64.6,29.79,NW,315,6.9,8.3,82,0.00,,,0.00,meteobridge,2013-06-25 12:47:00,
2013-06-25 07:53:00,70.3,64.2,29.78,NW,315,9.2,9.2,81,0.00,,,0.00,meteobridge,2013-06-25 12:53:00,
2013-06-25 07:59:00,70.2,64.0,29.78,NNW,338,8.3,8.3,81,0.00,,,0.00,meteobridge,2013-06-25 12:59:00,
2013-06-25 08:04:00,70.9,64.8,29.78,NW,315,6.0,8.3,81,0.00,,,0.00,meteobridge,2013-06-25 13:04:00,
2013-06-25 08:10:00,71.2,64.8,29.78,NW,315,7.6,9.2,80,0.00,,,0.00,meteobridge,2013-06-25 13:10:00,
2013-06-25 08:16:00,71.8,64.9,29.78,NW,315,6.0,7.6,79,0.00,,,0.00,meteobridge,2013-06-25 13:16:00,
2013-06-25 08:21:00,72.1,64.9,29.77,North,0,9.2,10.7,78,0.00,,,0.00,meteobridge,2013-06-25 13:21:00,
2013-06-25 08:27:00,72.0,64.8,29.78,NW,315,9.8,10.7,78,0.00,,,0.00,meteobridge,2013-06-25 13:27:00,
2013-06-25 08:33:00,71.8,64.9,29.78,NW,315,11.4,11.4,79,0.00,,,0.00,meteobridge,2013-06-25 13:33:00,
2013-06-25 08:38:00,71.6,64.8,29.78,WNW,293,8.3,8.3,79,0.00,,,0.00,meteobridge,2013-06-25 13:38:00,
2013-06-25 08:44:00,72.1,65.3,29.78,NW,315,9.8,9.8,79,0.00,,,0.00,meteobridge,2013-06-25 13:44:00,
2013-06-25 08:50:00,72.9,65.7,29.78,North,0,11.4,11.4,78,0.00,,,0.00,meteobridge,2013-06-25 13:50:00,
2013-06-25 08:55:00,73.8,66.0,29.78,NNW,338,9.2,9.8,77,0.00,,,0.00,meteobridge,2013-06-25 13:55:00,
2013-06-25 09:01:00,73.9,65.8,29.78,NW,315,10.7,12.1,76,0.00,,,0.00,meteobridge,2013-06-25 14:01:00,
2013-06-25 09:06:00,73.6,65.5,29.77,North,0,10.7,10.7,76,0.00,,,0.00,meteobridge,2013-06-25 14:06:00,
2013-06-25 09:12:00,74.3,66.2,29.78,North,0,11.4,11.4,76,0.00,,,0.00,meteobridge,2013-06-25 14:12:00,
2013-06-25 09:18:00,74.7,66.6,29.78,NNW,338,15.2,17.4,76,0.00,,,0.00,meteobridge,2013-06-25 14:18:00,
2013-06-25 09:23:00,74.8,66.7,29.78,NW,315,13.0,14.5,76,0.00,,,0.00,meteobridge,2013-06-25 14:23:00,
2013-06-25 09:29:00,75.6,66.7,29.78,NW,315,14.5,14.5,74,0.00,,,0.00,meteobridge,2013-06-25 14:29:00,
2013-06-25 09:35:00,75.2,66.4,29.77,NW,315,12.1,16.8,74,0.00,,,0.00,meteobridge,2013-06-25 14:35:00,
2013-06-25 09:40:00,76.3,66.9,29.78,North,0,13.6,14.5,73,0.00,,,0.00,meteobridge,2013-06-25 14:40:00,
2013-06-25 09:46:00,76.6,66.6,29.78,North,0,9.2,13.6,71,0.00,,,0.00,meteobridge,2013-06-25 14:46:00,
2013-06-25 09:52:00,77.0,66.4,29.77,NW,315,13.6,13.6,70,0.00,,,0.00,meteobridge,2013-06-25 14:52:00,
2013-06-25 09:57:00,77.0,66.9,29.77,North,0,13.0,13.0,71,0.00,,,0.00,meteobridge,2013-06-25 14:57:00,
2013-06-25 10:03:00,77.0,66.0,29.77,WNW,293,9.8,10.7,69,0.00,,,0.00,meteobridge,2013-06-25 15:03:00,
2013-06-25 10:08:00,77.4,66.7,29.77,NW,315,13.0,13.0,70,0.00,,,0.00,meteobridge,2013-06-25 15:08:00,
2013-06-25 10:14:00,77.7,66.7,29.77,NW,315,13.6,13.6,69,0.00,,,0.00,meteobridge,2013-06-25 15:14:00,
2013-06-25 10:20:00,77.0,65.7,29.77,North,0,9.2,12.1,68,0.00,,,0.00,meteobridge,2013-06-25 15:20:00,
2013-06-25 10:25:00,77.0,66.0,29.78,NW,315,8.3,11.4,69,0.00,,,0.00,meteobridge,2013-06-25 15:25:00,
2013-06-25 10:31:00,77.5,66.6,29.77,NW,315,9.2,9.2,69,0.00,,,0.00,meteobridge,2013-06-25 15:31:00,
2013-06-25 10:37:00,77.9,66.6,29.77,North,0,9.8,9.8,68,0.00,,,0.00,meteobridge,2013-06-25 15:37:00,
2013-06-25 10:42:00,78.1,66.2,29.77,NW,315,13.6,13.6,67,0.00,,,0.00,meteobridge,2013-06-25 15:42:00,
2013-06-25 10:48:00,78.1,66.2,29.77,North,0,12.1,12.1,67,0.00,,,0.00,meteobridge,2013-06-25 15:48:00,
2013-06-25 10:54:00,77.9,66.6,29.77,NW,315,10.7,10.7,68,0.00,,,0.00,meteobridge,2013-06-25 15:54:00,
2013-06-25 10:59:00,78.3,66.0,29.77,NNW,338,14.5,14.5,66,0.00,,,0.00,meteobridge,2013-06-25 15:59:00,
2013-06-25 11:05:00,78.4,66.6,29.77,NW,315,11.4,11.4,67,0.00,,,0.00,meteobridge,2013-06-25 16:05:00,
2013-06-25 11:11:00,78.3,66.0,29.77,NW,315,9.2,9.8,66,0.00,,,0.00,meteobridge,2013-06-25 16:11:00,
2013-06-25 11:16:00,78.3,66.0,29.77,NW,315,11.4,11.4,66,0.00,,,0.00,meteobridge,2013-06-25 16:16:00,
2013-06-25 11:22:00,78.6,66.4,29.77,North,0,11.4,11.4,66,0.00,,,0.00,meteobridge,2013-06-25 16:22:00,
2013-06-25 11:27:00,78.8,65.7,29.77,NW,315,10.7,11.4,64,0.00,,,0.00,meteobridge,2013-06-25 16:27:00,
2013-06-25 11:33:00,78.8,66.0,29.77,North,0,6.0,6.0,65,0.00,,,0.00,meteobridge,2013-06-25 16:33:00,
2013-06-25 11:39:00,79.9,66.6,29.77,NW,315,12.1,12.1,64,0.00,,,0.00,meteobridge,2013-06-25 16:39:00,
2013-06-25 11:44:00,79.7,66.4,29.76,North,0,9.8,12.1,64,0.00,,,0.00,meteobridge,2013-06-25 16:44:00,
2013-06-25 11:50:00,80.6,66.9,29.76,NW,315,6.9,9.8,63,0.00,,,0.00,meteobridge,2013-06-25 16:50:00,
2013-06-25 11:56:00,80.8,66.0,29.77,North,0,9.2,9.2,61,0.00,,,0.00,meteobridge,2013-06-25 16:56:00,
2013-06-25 12:01:00,80.6,65.5,29.77,North,0,11.4,14.5,60,0.00,,,0.00,meteobridge,2013-06-25 17:01:00,
2013-06-25 12:07:00,81.0,66.2,29.77,NW,315,15.9,15.9,61,0.00,,,0.00,meteobridge,2013-06-25 17:07:00,
2013-06-25 12:13:00,80.8,66.6,29.78,North,0,17.4,17.4,62,0.00,,,0.00,meteobridge,2013-06-25 17:13:00,
2013-06-25 12:18:00,81.5,66.7,29.78,North,0,10.7,14.5,61,0.00,,,0.00,meteobridge,2013-06-25 17:18:00,
2013-06-25 12:24:00,82.0,67.3,29.77,NW,315,6.0,11.4,61,0.00,,,0.00,meteobridge,2013-06-25 17:24:00,
2013-06-25 12:29:00,82.2,66.9,29.76,North,0,9.2,10.7,60,0.00,,,0.00,meteobridge,2013-06-25 17:29:00,
2013-06-25 12:35:00,82.2,66.4,29.76,NW,315,12.1,12.1,59,0.00,,,0.00,meteobridge,2013-06-25 17:35:00,
2013-06-25 12:41:00,82.4,65.7,29.76,NW,315,8.3,9.2,57,0.00,,,0.00,meteobridge,2013-06-25 17:41:00,
2013-06-25 12:46:00,82.0,65.8,29.76,North,0,11.4,13.0,58,0.00,,,0.00,meteobridge,2013-06-25 17:46:00,
2013-06-25 12:52:00,82.2,66.9,29.76,North,0,12.1,13.6,60,0.00,,,0.00,meteobridge,2013-06-25 17:52:00,
2013-06-25 12:58:00,81.7,66.4,29.75,West,270,17.4,17.4,60,0.00,,,0.00,meteobridge,2013-06-25 17:58:00,
2013-06-25 13:03:00,82.6,65.8,29.75,NW,315,13.6,13.6,57,0.00,,,0.00,meteobridge,2013-06-25 18:03:00,
2013-06-25 13:09:00,82.9,66.2,29.76,NW,315,11.4,11.4,57,0.00,,,0.00,meteobridge,2013-06-25 18:09:00,
2013-06-25 13:15:00,82.8,66.6,29.75,North,0,11.4,12.1,58,0.00,,,0.00,meteobridge,2013-06-25 18:15:00,
2013-06-25 13:20:00,83.5,66.6,29.76,NW,315,9.2,13.6,57,0.00,,,0.00,meteobridge,2013-06-25 18:20:00,
2013-06-25 13:26:00,83.7,66.7,29.75,NW,315,13.0,13.6,57,0.00,,,0.00,meteobridge,2013-06-25 18:26:00,
2013-06-25 13:31:00,83.3,66.0,29.75,NW,315,7.6,12.1,56,0.00,,,0.00,meteobridge,2013-06-25 18:31:00,
2013-06-25 13:37:00,84.2,66.7,29.76,North,0,9.2,9.8,56,0.00,,,0.00,meteobridge,2013-06-25 18:37:00,
2013-06-25 13:43:00,83.5,66.2,29.75,NNW,338,9.2,10.7,56,0.00,,,0.00,meteobridge,2013-06-25 18:43:00,
2013-06-25 13:48:00,84.0,66.6,29.75,North,0,8.3,12.1,56,0.00,,,0.00,meteobridge,2013-06-25 18:48:00,
2013-06-25 13:54:00,84.2,66.2,29.75,NNW,338,12.1,12.1,55,0.00,,,0.00,meteobridge,2013-06-25 18:54:00,
2013-06-25 14:00:00,84.0,67.1,29.75,North,0,9.8,9.8,57,0.00,,,0.00,meteobridge,2013-06-25 19:00:00,
2013-06-25 14:05:00,84.0,66.6,29.75,WNW,293,9.8,9.8,56,0.00,,,0.00,meteobridge,2013-06-25 19:05:00,
2013-06-25 14:11:00,83.7,66.7,29.75,WNW,293,13.6,14.5,57,0.00,,,0.00,meteobridge,2013-06-25 19:11:00,
2013-06-25 14:17:00,84.6,67.1,29.75,NNW,338,8.3,8.3,56,0.00,,,0.00,meteobridge,2013-06-25 19:17:00,
2013-06-25 14:22:00,84.6,66.6,29.75,NW,315,10.7,10.7,55,0.00,,,0.00,meteobridge,2013-06-25 19:22:00,
2013-06-25 14:28:00,84.4,66.9,29.74,NW,315,9.2,11.4,56,0.00,,,0.00,meteobridge,2013-06-25 19:28:00,
2013-06-25 14:34:00,84.0,66.6,29.75,NW,315,15.2,15.2,56,0.00,,,0.00,meteobridge,2013-06-25 19:34:00,
2013-06-25 14:39:00,83.8,66.4,29.75,North,0,11.4,13.0,56,0.00,,,0.00,meteobridge,2013-06-25 19:39:00,
2013-06-25 14:45:00,84.0,67.1,29.74,NW,315,10.7,10.7,57,0.00,,,0.00,meteobridge,2013-06-25 19:45:00,
2013-06-25 14:50:00,84.4,66.9,29.75,NNW,338,11.4,12.1,56,0.00,,,0.00,meteobridge,2013-06-25 19:50:00,
2013-06-25 14:56:00,84.4,65.8,29.74,NNW,338,6.9,9.2,54,0.00,,,0.00,meteobridge,2013-06-25 19:56:00,
2013-06-25 15:02:00,84.6,67.1,29.74,West,270,12.1,12.1,56,0.00,,,0.00,meteobridge,2013-06-25 20:02:00,
2013-06-25 15:07:00,85.3,67.8,29.74,North,0,7.6,7.6,56,0.00,,,0.00,meteobridge,2013-06-25 20:07:00,
2013-06-25 15:13:00,85.6,67.1,29.74,WNW,293,10.7,10.7,54,0.00,,,0.00,meteobridge,2013-06-25 20:13:00,
2013-06-25 15:19:00,86.0,67.5,29.74,NW,315,8.3,8.3,54,0.00,,,0.00,meteobridge,2013-06-25 20:19:00,
2013-06-25 15:24:00,85.3,67.3,29.74,NNW,338,9.2,9.2,55,0.00,,,0.00,meteobridge,2013-06-25 20:24:00,
2013-06-25 15:30:00,85.3,68.4,29.74,West,270,9.8,9.8,57,0.00,,,0.00,meteobridge,2013-06-25 20:30:00,
2013-06-25 15:36:00,85.6,67.6,29.74,NW,315,10.7,10.7,55,0.00,,,0.00,meteobridge,2013-06-25 20:36:00,
2013-06-25 15:41:00,85.3,66.7,29.74,SW,225,9.8,13.6,54,0.00,,,0.00,meteobridge,2013-06-25 20:41:00,
2013-06-25 15:47:00,85.1,67.1,29.74,NW,315,9.8,10.7,55,0.00,,,0.00,meteobridge,2013-06-25 20:47:00,
2013-06-25 15:52:00,85.3,67.3,29.73,NW,315,9.2,9.8,55,0.00,,,0.00,meteobridge,2013-06-25 20:52:00,
2013-06-25 15:58:00,86.0,67.5,29.73,NW,315,10.7,10.7,54,0.00,,,0.00,meteobridge,2013-06-25 20:58:00,
2013-06-25 16:04:00,85.5,67.5,29.73,NW,315,8.3,8.3,55,0.00,,,0.00,meteobridge,2013-06-25 21:04:00,
2013-06-25 16:09:00,86.2,67.6,29.73,West,270,8.3,8.3,54,0.00,,,0.00,meteobridge,2013-06-25 21:09:00,
2013-06-25 16:15:00,85.5,67.5,29.73,NW,315,9.8,11.4,55,0.00,,,0.00,meteobridge,2013-06-25 21:15:00,
2013-06-25 16:21:00,85.5,67.5,29.73,NW,315,9.8,9.8,55,0.00,,,0.00,meteobridge,2013-06-25 21:21:00,
2013-06-25 16:26:00,86.0,67.5,29.73,NW,315,9.2,9.8,54,0.00,,,0.00,meteobridge,2013-06-25 21:26:00,
2013-06-25 16:31:00,86.7,68.0,29.73,NNW,338,7.6,7.6,54,0.00,,,0.00,meteobridge,2013-06-25 21:31:00,
2013-06-25 16:37:00,86.5,66.7,29.74,WNW,293,9.2,9.8,52,0.00,,,0.00,meteobridge,2013-06-25 21:37:00,
2013-06-25 16:43:00,86.2,67.6,29.73,NW,315,9.2,9.2,54,0.00,,,0.00,meteobridge,2013-06-25 21:43:00,
2013-06-25 16:48:00,86.5,68.0,29.73,NW,315,9.2,9.2,54,0.00,,,0.00,meteobridge,2013-06-25 21:48:00,
2013-06-25 16:54:00,86.9,67.6,29.73,North,0,6.9,9.8,53,0.00,,,0.00,meteobridge,2013-06-25 21:54:00,
2013-06-25 16:59:00,86.9,68.2,29.73,NW,315,10.7,10.7,54,0.00,,,0.00,meteobridge,2013-06-25 21:59:00,
2013-06-25 17:05:00,86.7,67.5,29.73,NW,315,8.3,9.8,53,0.00,,,0.00,meteobridge,2013-06-25 22:05:00,
2013-06-25 17:11:00,86.2,68.2,29.72,NW,315,7.6,9.8,55,0.00,,,0.00,meteobridge,2013-06-25 22:11:00,
2013-06-25 17:16:00,87.3,68.5,29.72,NE,45,6.9,8.3,54,0.00,,,0.00,meteobridge,2013-06-25 22:16:00,
2013-06-25 17:22:00,87.3,68.0,29.72,NW,315,8.3,8.3,53,0.00,,,0.00,meteobridge,2013-06-25 22:22:00,
2013-06-25 17:28:00,87.4,68.7,29.72,NW,315,9.2,9.2,54,0.00,,,0.00,meteobridge,2013-06-25 22:28:00,
2013-06-25 17:33:00,86.4,68.4,29.72,North,0,7.6,7.6,55,0.00,,,0.00,meteobridge,2013-06-25 22:33:00,
2013-06-25 17:39:00,86.2,68.2,29.72,North,0,6.0,6.0,55,0.00,,,0.00,meteobridge,2013-06-25 22:39:00,
2013-06-25 17:45:00,85.8,68.9,29.72,NW,315,6.0,6.9,57,0.00,,,0.00,meteobridge,2013-06-25 22:45:00,
2013-06-25 17:50:00,85.6,69.1,29.73,NE,45,5.4,5.4,58,0.00,,,0.00,meteobridge,2013-06-25 22:50:00,
2013-06-25 17:56:00,84.9,69.4,29.72,North,0,12.1,12.1,60,0.00,,,0.00,meteobridge,2013-06-25 22:56:00,
2013-06-25 18:01:00,84.6,69.6,29.72,North,0,13.6,13.6,61,0.00,,,0.00,meteobridge,2013-06-25 23:01:00,
2013-06-25 18:07:00,84.6,69.6,29.72,NW,315,12.1,12.1,61,0.00,,,0.00,meteobridge,2013-06-25 23:07:00,
2013-06-25 18:13:00,84.4,70.3,29.72,NNW,338,13.0,13.0,63,0.00,,,0.00,meteobridge,2013-06-25 23:13:00,
2013-06-25 18:18:00,83.7,71.1,29.72,NW,315,9.2,9.2,66,0.00,,,0.00,meteobridge,2013-06-25 23:18:00,
2013-06-25 18:24:00,82.8,70.2,29.72,NW,315,10.7,11.4,66,0.00,,,0.00,meteobridge,2013-06-25 23:24:00,
2013-06-25 18:30:00,82.9,70.9,29.72,NW,315,9.8,9.8,67,0.00,,,0.00,meteobridge,2013-06-25 23:30:00,
2013-06-25 18:35:00,83.5,71.4,29.72,North,0,6.0,6.9,67,0.00,,,0.00,meteobridge,2013-06-25 23:35:00,
2013-06-25 18:41:00,84.0,71.4,29.71,NNW,338,9.2,9.2,66,0.00,,,0.00,meteobridge,2013-06-25 23:41:00,
2013-06-25 18:47:00,84.2,71.2,29.71,NW,315,6.9,7.6,65,0.00,,,0.00,meteobridge,2013-06-25 23:47:00,
2013-06-25 18:52:00,83.7,71.1,29.71,NW,315,6.9,8.3,66,0.00,,,0.00,meteobridge,2013-06-25 23:52:00,
2013-06-25 18:58:00,84.2,71.2,29.72,North,0,5.4,7.6,65,0.00,,,0.00,meteobridge,2013-06-25 23:58:00,
2013-06-25 19:03:00,85.1,71.6,29.71,North,0,6.0,8.3,64,0.00,,,0.00,meteobridge,2013-06-26 00:03:00,
2013-06-25 19:09:00,84.9,71.4,29.71,WNW,293,6.9,7.6,64,0.00,,,0.00,meteobridge,2013-06-26 00:09:00,
2013-06-25 19:15:00,84.4,70.9,29.71,NW,315,5.4,5.4,64,0.00,,,0.00,meteobridge,2013-06-26 00:15:00,
2013-06-25 19:20:00,85.1,71.6,29.71,NW,315,3.1,4.5,64,0.00,,,0.00,meteobridge,2013-06-26 00:20:00,
2013-06-25 19:26:00,85.1,71.6,29.71,NW,315,3.8,5.4,64,0.00,,,0.00,meteobridge,2013-06-26 00:26:00,
2013-06-25 19:32:00,85.3,71.8,29.71,NW,315,4.5,4.5,64,0.00,,,0.00,meteobridge,2013-06-26 00:32:00,
2013-06-25 19:37:00,84.9,71.4,29.71,NW,315,5.4,5.4,64,0.00,,,0.00,meteobridge,2013-06-26 00:37:00,
2013-06-25 19:43:00,85.1,71.6,29.71,North,0,4.5,4.5,64,0.00,,,0.00,meteobridge,2013-06-26 00:43:00,
2013-06-25 19:49:00,85.1,71.6,29.72,NW,315,5.4,5.4,64,0.00,,,0.00,meteobridge,2013-06-26 00:49:00,
2013-06-25 19:54:00,84.9,71.4,29.71,NW,315,4.5,5.4,64,0.00,,,0.00,meteobridge,2013-06-26 00:54:00,
2013-06-25 20:00:00,84.4,71.2,29.71,NW,315,3.1,3.1,65,0.00,,,0.00,meteobridge,2013-06-26 01:00:00,
2013-06-25 20:06:00,84.6,71.1,29.71,NW,315,3.8,3.8,64,0.00,,,0.00,meteobridge,2013-06-26 01:06:00,
2013-06-25 20:11:00,83.8,71.2,29.71,NW,315,4.5,5.4,66,0.00,,,0.00,meteobridge,2013-06-26 01:11:00,
2013-06-25 20:17:00,83.5,70.9,29.71,NW,315,3.8,6.0,66,0.00,,,0.00,meteobridge,2013-06-26 01:17:00,
2013-06-25 20:22:00,82.9,70.9,29.70,NW,315,4.5,4.5,67,0.00,,,0.00,meteobridge,2013-06-26 01:22:00,
2013-06-25 20:28:00,82.6,70.9,29.70,NW,315,4.5,4.5,68,0.00,,,0.00,meteobridge,2013-06-26 01:28:00,
2013-06-25 20:34:00,82.2,72.0,29.70,WNW,293,3.8,3.8,71,0.00,,,0.00,meteobridge,2013-06-26 01:34:00,
2013-06-25 20:39:00,82.0,71.8,29.70,NW,315,3.1,3.8,71,0.00,,,0.00,meteobridge,2013-06-26 01:39:00,
2013-06-25 20:45:00,81.5,71.2,29.70,NW,315,3.1,3.8,71,0.00,,,0.00,meteobridge,2013-06-26 01:45:00,
2013-06-25 20:51:00,81.1,71.2,29.70,NW,315,3.8,3.8,72,0.00,,,0.00,meteobridge,2013-06-26 01:51:00,
2013-06-25 20:56:00,81.0,71.1,29.70,NW,315,3.8,3.8,72,0.00,,,0.00,meteobridge,2013-06-26 01:56:00,
2013-06-25 21:02:00,80.6,71.1,29.70,NW,315,3.8,4.5,73,0.00,,,0.00,meteobridge,2013-06-26 02:02:00,
2013-06-25 21:08:00,80.4,71.8,29.70,NW,315,3.8,5.4,75,0.00,,,0.00,meteobridge,2013-06-26 02:08:00,
2013-06-25 21:13:00,80.1,71.8,29.70,NW,315,3.1,3.8,76,0.00,,,0.00,meteobridge,2013-06-26 02:13:00,
2013-06-25 21:19:00,79.9,71.6,29.70,NW,315,3.1,3.1,76,0.00,,,0.00,meteobridge,2013-06-26 02:19:00,
2013-06-25 21:24:00,80.1,71.4,29.70,West,270,3.1,3.1,75,0.00,,,0.00,meteobridge,2013-06-26 02:24:00,
2013-06-25 21:30:00,79.9,71.2,29.70,North,0,4.5,6.0,75,0.00,,,0.00,meteobridge,2013-06-26 02:30:00,
2013-06-25 21:36:00,79.7,71.4,29.70,NW,315,5.4,5.4,76,0.00,,,0.00,meteobridge,2013-06-26 02:36:00,
2013-06-25 21:41:00,79.5,71.2,29.70,NW,315,6.0,6.9,76,0.00,,,0.00,meteobridge,2013-06-26 02:41:00,
2013-06-25 21:47:00,79.5,71.2,29.70,West,270,3.8,5.4,76,0.00,,,0.00,meteobridge,2013-06-26 02:47:00,
2013-06-25 21:53:00,79.5,71.2,29.70,West,270,5.4,5.4,76,0.00,,,0.00,meteobridge,2013-06-26 02:53:00,
2013-06-25 21:58:00,79.7,71.4,29.70,NW,315,4.5,4.5,76,0.00,,,0.00,meteobridge,2013-06-26 02:58:00,
2013-06-25 22:04:00,79.7,71.4,29.70,West,270,5.4,5.4,76,0.00,,,0.00,meteobridge,2013-06-26 03:04:00,
2013-06-25 22:10:00,79.5,71.2,29.70,West,270,4.5,4.5,76,0.00,,,0.00,meteobridge,2013-06-26 03:10:00,
2013-06-25 22:15:00,79.3,71.1,29.70,NW,315,2.2,4.5,76,0.00,,,0.00,meteobridge,2013-06-26 03:15:00,
2013-06-25 22:20:00,79.2,71.2,29.70,NW,315,3.8,4.5,77,0.00,,,0.00,meteobridge,2013-06-26 03:20:00,
2013-06-25 22:26:00,78.8,71.1,29.70,NW,315,3.8,3.8,77,0.00,,,0.00,meteobridge,2013-06-26 03:26:00,
2013-06-25 22:31:00,78.6,71.6,29.70,NW,315,3.8,3.8,79,0.00,,,0.00,meteobridge,2013-06-26 03:31:00,
2013-06-25 22:37:00,78.4,71.8,29.70,NW,315,3.8,3.8,80,0.00,,,0.00,meteobridge,2013-06-26 03:37:00,
2013-06-25 22:43:00,78.3,72.0,29.70,NW,315,3.1,3.8,81,0.00,,,0.00,meteobridge,2013-06-26 03:43:00,
2013-06-25 22:48:00,78.1,71.4,29.70,NW,315,3.8,3.8,80,0.00,,,0.00,meteobridge,2013-06-26 03:48:00,
2013-06-25 22:54:00,78.1,71.8,29.70,NW,315,3.1,3.1,81,0.00,,,0.00,meteobridge,2013-06-26 03:54:00,
2013-06-25 23:00:00,78.1,71.8,29.70,NW,315,3.1,3.1,81,0.00,,,0.00,meteobridge,2013-06-26 04:00:00,
2013-06-25 23:01:00,77.9,71.6,29.70,West,270,3.1,3.1,81,0.00,,,0.00,meteobridge,2013-06-26 04:01:00,
2013-06-25 23:02:00,77.9,71.6,29.70,West,270,3.1,3.1,81,0.00,,,0.00,meteobridge,2013-06-26 04:02:00,
2013-06-25 23:03:00,77.9,71.6,29.70,West,270,3.1,3.1,81,0.00,,,0.00,meteobridge,2013-06-26 04:03:00,
2013-06-25 23:05:00,77.7,71.4,29.70,West,270,3.8,4.5,81,0.00,,,0.00,meteobridge,2013-06-26 04:05:00,
2013-06-25 23:11:00,77.7,71.8,29.70,WNW,293,2.2,3.1,82,0.00,,,0.00,meteobridge,2013-06-26 04:11:00,
2013-06-25 23:12:00,77.7,71.8,29.70,West,270,3.1,3.1,82,0.00,,,0.00,meteobridge,2013-06-26 04:12:00,
2013-06-25 23:17:00,77.4,71.4,29.69,WNW,293,4.5,4.5,82,0.00,,,0.00,meteobridge,2013-06-26 04:17:00,
2013-06-25 23:23:00,77.4,71.8,29.70,NW,315,3.8,5.4,83,0.00,,,0.00,meteobridge,2013-06-26 04:23:00,
2013-06-25 23:29:00,77.0,71.4,29.70,NW,315,3.1,3.1,83,0.00,,,0.00,meteobridge,2013-06-26 04:29:00,
2013-06-25 23:34:00,77.0,71.4,29.70,West,270,1.6,2.2,83,0.00,,,0.00,meteobridge,2013-06-26 04:34:00,
2013-06-25 23:40:00,76.8,72.0,29.70,NW,315,2.2,2.2,85,0.00,,,0.00,meteobridge,2013-06-26 04:40:00,
2013-06-25 23:45:00,76.6,71.8,29.70,NW,315,2.2,3.1,85,0.00,,,0.00,meteobridge,2013-06-26 04:45:00,
2013-06-25 23:51:00,76.5,71.6,29.69,NW,315,3.8,3.8,85,0.00,,,0.00,meteobridge,2013-06-26 04:51:00,
2013-06-25 23:57:00,76.3,71.8,29.70,NW,315,3.8,3.8,86,0.00,,,0.00,meteobridge,2013-06-26 04:57:00,